GW5447 Weather Reports


time (UTC)temp
C
wind
direction
speed
KPH
gust
KPH
rain 1hr
cm
rain 24hr
cm
rain mn
cm
humidity
%
barometer
mb
20260506224715 13 8 1.6 4.8 0.00 0.23 0.23 49 1013.3
20260506224212 13 258 1.6 3.2 0.00 0.23 0.23 49 1013.4
20260506223708 13 163 0.0 1.6 0.00 0.23 0.23 51 1013.7
20260506223204 13 249 1.6 3.2 0.00 0.23 0.23 50 1013.4
20260506222702 13 298 0.0 4.8 0.00 0.23 0.23 50 1013.4
20260506222157 13 260 0.0 3.2 0.00 0.23 0.23 49 1013.6
20260506221655 13 238 1.6 1.6 0.00 0.23 0.23 48 1013.6
20260506221153 13 269 0.0 1.6 0.00 0.23 0.23 50 1013.4
20260506220649 14 216 0.0 4.8 0.00 0.23 0.23 49 1013.2
20260506220144 14 69 0.0 3.2 0.00 0.23 0.23 50 1012.9
20260506215641 13 293 1.6 4.8 0.00 0.23 0.23 46 1013.0
20260506215136 13 196 1.6 4.8 0.00 0.23 0.23 49 1012.8
20260506214633 13 34 3.2 4.8 0.00 0.23 0.23 48 1012.8
20260506214131 13 246 1.6 6.4 0.00 0.23 0.23 49 1012.9
20260506213629 13 354 4.8 9.7 0.00 0.23 0.23 48 1012.7
20260506213126 13 358 1.6 3.2 0.00 0.23 0.23 48 1012.7
20260506212624 13 281 1.6 1.6 0.00 0.23 0.23 47 1012.7
20260506212118 13 334 1.6 6.4 0.00 0.23 0.23 46 1012.7
20260506211614 13 334 1.6 6.4 0.00 0.23 0.23 48 1012.5
20260506211111 13 255 1.6 6.4 0.00 0.23 0.23 49 1012.6
20260506210608 14 322 1.6 1.6 0.00 0.23 0.23 49 1012.6
20260506210104 14 220 0.0 0.0 0.00 0.23 0.23 49 1012.8
20260506205601 13 353 3.2 9.7 0.00 0.23 0.23 47 1012.7
20260506205056 13 329 1.6 6.4 0.00 0.23 0.23 48 1012.6
20260506204554 13 311 1.6 4.8 0.00 0.23 0.23 47 1012.5
20260506204051 14 63 3.2 6.4 0.00 0.23 0.23 48 1012.4
20260506203550 14 257 0.0 6.4 0.00 0.23 0.23 47 1012.6
20260506203046 15 12 3.2 6.4 0.00 0.23 0.23 47 1012.4
20260506202543 15 287 0.0 3.2 0.00 0.23 0.23 46 1012.4
20260506202039 14 289 0.0 3.2 0.00 0.23 0.23 50 1012.3
20260506201537 13 271 1.6 1.6 0.00 0.23 0.23 50 1012.4
20260506201033 13 316 6.4 9.7 0.00 0.23 0.23 48 1012.5
20260506200529 13 292 1.6 9.7 0.00 0.23 0.23 48 1012.4
20260506200026 14 223 0.0 11.3 0.00 0.23 0.23 46 1012.3
20260506195524 14 315 3.2 4.8 0.00 0.23 0.23 48 1012.4
20260506195020 14 20 11.3 14.5 0.00 0.23 0.23 46 1012.3
20260506194518 14 313 4.8 9.7 0.00 0.23 0.23 48 1012.3
20260506194014 15 291 1.6 11.3 0.00 0.23 0.23 48 1012.3
20260506193511 15 293 6.4 6.4 0.00 0.23 0.23 48 1012.4
20260506193008 15 290 3.2 6.4 0.00 0.23 0.23 49 1012.4
20260506192505 15 292 1.6 11.3 0.00 0.23 0.23 49 1012.5
20260506192001 15 242 3.2 4.8 0.00 0.23 0.23 47 1012.2
20260506191458 15 314 3.2 6.4 0.00 0.23 0.23 47 1012.1
20260506190954 15 202 6.4 11.3 0.00 0.23 0.23 46 1012.2
20260506190452 15 248 1.6 12.9 0.00 0.23 0.23 45 1012.1
20260506185948 15 337 4.8 9.7 0.00 0.23 0.23 45 1011.9
20260506185446 15 258 9.7 11.3 0.00 0.23 0.23 44 1012.1
20260506184942 15 59 1.6 12.9 0.00 0.23 0.23 44 1012.1
20260506184439 16 231 1.6 12.9 0.00 0.23 0.23 43 1012.2
20260506183936 15 316 3.2 11.3 0.00 0.23 0.23 45 1012.1
20260506183431 15 241 4.8 11.3 0.00 0.23 0.23 46 1012.1
20260506182929 15 13 1.6 4.8 0.00 0.23 0.23 47 1012.2
20260506182426 15 238 4.8 12.9 0.00 0.23 0.23 46 1012.2
20260506181923 15 326 4.8 6.4 0.00 0.23 0.23 43 1012.2
20260506181421 15 253 4.8 12.9 0.00 0.23 0.23 46 1012.2
20260506180918 16 221 3.2 6.4 0.00 0.23 0.23 46 1012.3
20260506180415 16 134 1.6 6.4 0.00 0.23 0.23 45 1012.2
20260506175912 15 277 0.0 3.2 0.00 0.23 0.23 49 1012.3
20260506175408 15 174 4.8 6.4 0.00 0.23 0.23 47 1012.2
20260506174905 15 294 3.2 11.3 0.00 0.23 0.23 45 1012.3
20260506174402 15 312 1.6 3.2 0.00 0.23 0.23 48 1012.5
20260506173859 15 277 3.2 4.8 0.00 0.23 0.23 47 1012.4
20260506173356 15 267 9.7 12.9 0.00 0.23 0.23 48 1012.4
20260506172853 15 107 1.6 6.4 0.00 0.23 0.23 48 1012.4
20260506172349 15 287 4.8 6.4 0.00 0.23 0.23 50 1012.3
20260506171847 15 93 1.6 6.4 0.00 0.23 0.23 46 1012.5
20260506171345 15 268 3.2 4.8 0.00 0.23 0.23 48 1012.1
20260506170842 15 28 3.2 9.7 0.00 0.23 0.23 50 1012.2
20260506170337 15 292 1.6 12.9 0.00 0.23 0.23 52 1012.2
20260506165832 15 241 4.8 11.3 0.00 0.23 0.23 50 1012.3
20260506165329 15 110 1.6 3.2 0.00 0.23 0.23 51 1012.5
20260506164825 14 311 4.8 6.4 0.00 0.23 0.23 51 1012.4
20260506164321 15 252 8.0 11.3 0.00 0.23 0.23 49 1012.3
20260506163819 15 111 1.6 4.8 0.00 0.23 0.23 51 1012.4
20260506163313 14 255 1.6 9.7 0.00 0.23 0.23 51 1012.7
20260506162809 14 211 4.8 6.4 0.00 0.23 0.23 53 1012.7
20260506162307 14 256 8.0 12.9 0.00 0.23 0.23 51 1012.5
20260506161804 14 354 3.2 14.5 0.00 0.23 0.23 53 1012.4
20260506161302 14 209 0.0 6.4 0.00 0.23 0.23 54 1012.5
20260506160759 14 330 1.6 3.2 0.00 0.23 0.23 58 1012.4
20260506160256 13 317 3.2 4.8 0.00 0.23 0.23 58 1012.0
20260506155755 13 308 3.2 4.8 0.00 0.23 0.23 55 1012.3
20260506155251 12 250 1.6 4.8 0.00 0.23 0.23 59 1012.0
20260506153404 12 251 4.8 9.7 0.00 0.23 0.23 61 1011.8
20260506152901 12 330 1.6 3.2 0.00 0.23 0.23 65 1012.0
20260506152358 12 8 3.2 9.7 0.00 0.23 0.23 62 1011.9
20260506151856 11 258 4.8 6.4 0.00 0.23 0.23 61 1011.9
20260506151353 11 6 4.8 4.8 0.00 0.23 0.23 63 1011.9
20260506150850 11 333 4.8 9.7 0.00 0.23 0.23 63 1011.6
20260506150346 11 276 1.6 3.2 0.00 0.23 0.23 66 1011.6
20260506145843 11 6 1.6 6.4 0.00 0.23 0.23 65 1011.6
20260506145340 11 200 1.6 4.8 0.00 0.23 0.23 65 1011.6
20260506144838 10 253 4.8 6.4 0.00 0.23 0.23 67 1011.7
20260506144334 10 286 3.2 9.7 0.00 0.23 0.23 68 1011.7
20260506143832 10 323 1.6 3.2 0.00 0.23 0.23 70 1011.9
20260506143329 10 3 3.2 9.7 0.00 0.23 0.23 72 1011.8
20260506142827 10 275 1.6 9.7 0.00 0.23 0.23 70 1011.3
20260506142324 10 288 1.6 1.6 0.00 0.23 0.23 75 1011.4
20260506141823 10 24 3.2 6.4 0.00 0.23 0.23 73 1011.3
20260506141321 10 306 1.6 11.3 0.00 0.23 0.23 74 1011.2
20260506140818 10 283 3.2 6.4 0.00 0.23 0.23 78 1011.2
20260506140315 10 14 1.6 4.8 0.00 0.23 0.23 78 1011.1
20260506135812 10 274 0.0 3.2 0.00 0.23 0.23 80 1011.0
20260506135308 9 326 0.0 6.4 0.00 0.23 0.23 80 1011.0
20260506134805 9 269 1.6 4.8 0.00 0.23 0.23 80 1011.2
20260506134301 9 247 6.4 14.5 0.00 0.23 0.23 78 1011.1
20260506133759 9 338 4.8 9.7 0.00 0.23 0.23 80 1010.8
20260506133255 9 238 1.6 6.4 0.00 0.23 0.23 82 1010.9
20260506132752 9 90 0.0 3.2 0.00 0.23 0.23 86 1010.5
20260506132249 8 288 1.6 4.8 0.00 0.23 0.23 85 1010.5
20260506131748 8 270 1.6 3.2 0.00 0.23 0.23 87 1010.7
20260506131243 8 245 3.2 9.7 0.00 0.23 0.23 87 1010.7
20260506130740 8 302 0.0 1.6 0.00 0.23 0.23 88 1010.9
20260506130237 8 306 3.2 4.8 0.00 0.23 0.23 87 1010.8
20260506125735 8 184 0.0 3.2 0.00 0.23 0.23 87 1010.9
20260506125233 8 10 0.0 9.7 0.00 0.23 0.23 87 1010.9
20260506124731 8 263 1.6 4.8 0.00 0.23 0.23 91 1010.8
20260506124228 8 56 0.0 3.2 0.00 0.23 0.23 92 1010.5
20260506123725 8 328 3.2 6.4 0.00 0.23 0.23 94 1010.4
20260506123224 8 356 1.6 4.8 0.00 0.23 0.23 95 1010.0
20260506122720 8 15 4.8 6.4 0.00 0.23 0.23 96 1009.5
20260506122218 8 251 4.8 9.7 0.00 0.23 0.23 97 1009.6
20260506121716 8 332 0.0 3.2 0.00 0.23 0.23 97 1009.6
20260506121212 8 147 0.0 3.2 0.00 0.23 0.23 97 1009.5
20260506120710 8 124 0.0 0.0 0.00 0.23 0.23 97 1009.7
20260506120207 8 280 0.0 3.2 0.00 0.23 0.23 97 1009.6
20260506115705 8 278 0.0 1.6 0.00 0.23 0.23 97 1009.8
20260506115203 7 277 1.6 3.2 0.00 0.23 0.23 97 1009.6
20260506114700 7 259 1.6 3.2 0.00 0.23 0.23 97 1009.7
20260506114158 7 221 1.6 1.6 0.00 0.23 0.23 97 1009.8
20260506113656 7 208 0.0 0.0 0.00 0.23 0.23 97 1009.9
20260506113153 7 184 0.0 1.6 0.00 0.23 0.23 97 1009.7
20260506112649 7 281 1.6 3.2 0.00 0.23 0.23 97 1009.4
20260506112147 7 275 0.0 3.2 0.00 0.23 0.23 97 1008.9
20260506111645 7 249 0.0 3.2 0.00 0.23 0.23 97 1008.5
20260506111142 7 358 0.0 9.7 0.00 0.23 0.23 97 1008.3
20260506110639 7 303 3.2 3.2 0.00 0.23 0.23 97 1008.3
20260506110137 7 295 3.2 9.7 0.00 0.23 0.23 97 1008.4
20260506105633 7 285 3.2 6.4 0.00 0.23 0.23 98 1008.8
20260506105130 7 287 0.0 3.2 0.00 0.23 0.23 98 1008.6
20260506104628 7 282 1.6 3.2 0.00 0.23 0.23 97 1008.6
20260506104125 8 322 0.0 3.2 0.00 0.23 0.23 98 1008.8
20260506103623 8 54 0.0 1.6 0.00 0.23 0.23 98 1008.7
20260506103119 8 68 1.6 1.6 0.00 0.23 0.23 98 1008.8
20260506102618 8 291 3.2 6.4 0.00 0.23 0.23 98 1008.7
20260506102115 8 296 0.0 3.2 0.00 0.23 0.23 98 1008.5
20260506101611 7 314 4.8 11.3 0.00 0.23 0.23 98 1008.3
20260506101108 7 38 0.0 6.4 0.00 0.23 0.23 98 1007.9
20260506100607 7 70 0.0 3.2 0.00 0.23 0.23 97 1007.6
20260506100104 7 331 0.0 4.8 0.00 0.23 0.23 97 1007.5
20260506095603 7 4 0.0 3.2 0.00 0.23 0.23 97 1007.4
20260506095059 7 306 1.6 3.2 0.00 0.23 0.23 97 1007.5
20260506094557 7 265 3.2 4.8 0.00 0.23 0.23 97 1007.7
20260506094054 7 262 0.0 1.6 0.00 0.23 0.23 97 1007.1
20260506093552 7 316 1.6 1.6 0.00 0.23 0.23 97 1007.2
20260506093049 7 359 0.0 1.6 0.00 0.23 0.23 97 1007.3
20260506092548 7 3 3.2 6.4 0.00 0.23 0.23 97 1007.7
20260506092044 8 202 0.0 3.2 0.00 0.23 0.23 97 1008.0
20260506091542 8 274 3.2 3.2 0.00 0.23 0.23 97 1008.1
20260506091039 8 298 3.2 6.4 0.00 0.23 0.23 97 1007.7
20260506090537 8 325 3.2 3.2 0.00 0.23 0.23 97 1007.3
20260506090033 8 306 1.6 4.8 0.13 0.23 0.23 97 1007.3
20260506085530 8 305 0.0 3.2 0.13 0.23 0.23 97 1007.5
20260506085026 8 251 3.2 4.8 0.00 0.20 0.20 97 1007.5
20260506084524 8 102 4.8 6.4 0.18 0.20 0.20 97 1007.8
20260506084019 8 45 3.2 4.8 0.18 0.20 0.20 97 1008.0
20260506083517 8 261 6.4 6.4 0.13 0.18 0.18 97 1007.9
20260506083014 8 3 0.0 4.8 0.30 0.18 0.18 98 1007.8
20260506082511 8 253 3.2 11.3 0.30 0.15 0.15 97 1007.8
20260506082007 8 104 0.0 3.2 0.30 0.13 0.13 97 1007.5
20260506081505 8 296 1.6 11.3 0.18 0.10 0.10 98 1007.6
20260506081002 8 271 1.6 4.8 0.00 0.08 0.08 97 1007.8
20260506080459 8 263 0.0 4.8 0.00 0.08 0.08 97 1007.4
20260506073443 8 272 0.0 6.4 0.13 0.08 0.08 97 1007.0
20260506072940 8 45 4.8 6.4 0.00 0.05 0.05 97 1007.1
20260506072437 8 318 3.2 3.2 0.00 0.05 0.05 97 1007.1
20260506071935 8 313 6.4 9.7 0.18 0.05 0.05 97 1007.1
20260506071433 8 274 6.4 9.7 0.18 0.05 0.05 97 1007.0
20260506070930 8 276 1.6 3.2 0.18 0.03 0.03 97 1006.9
20260506070426 8 75 3.2 6.4 0.13 0.00 0.00 97 1007.1
20260506062404 8 289 3.2 9.7 0.30 1.98 1.98 98 1007.1
20260506061900 9 277 1.6 11.3 0.30 1.96 1.96 98 1007.4
20260506061356 9 332 6.4 9.7 0.36 1.93 1.93 98 1007.2
20260506060855 9 280 1.6 3.2 0.30 1.91 1.91 98 1007.3
20260506060352 9 308 0.0 4.8 0.30 1.88 1.88 98 1007.4
20260506051324 10 0 1.6 3.2 0.13 1.73 1.73 98 1007.4
20260506050822 10 289 4.8 6.4 0.30 1.73 1.73 97 1007.3
20260506050319 10 262 3.2 6.4 0.18 1.70 1.70 98 1007.3
20260506044810 10 280 3.2 4.8 0.00 1.68 1.68 98 1007.3
20260506044307 10 303 1.6 3.2 0.00 1.68 1.68 98 1007.3
20260506043804 10 257 3.2 4.8 0.00 1.68 1.68 98 1007.5
20260506043301 10 242 3.2 4.8 0.00 1.68 1.68 98 1007.5
20260506042801 10 305 4.8 6.4 0.00 1.68 1.68 98 1007.4
20260506042259 10 97 0.0 1.6 0.00 1.68 1.68 98 1007.6
20260506041757 10 117 0.0 0.0 0.00 1.68 1.68 98 1007.5
20260506041253 10 241 0.0 1.6 0.00 1.68 1.68 98 1007.5
20260506040751 10 256 0.0 0.0 0.00 1.68 1.68 98 1007.6
20260506040248 10 289 1.6 1.6 0.00 1.68 1.68 98 1007.6
20260506035745 10 30 1.6 3.2 0.00 1.68 1.68 98 1007.7
20260506035241 10 211 0.0 0.0 0.00 1.68 1.68 98 1007.8
20260506034738 10 48 0.0 4.8 0.13 1.68 1.68 98 1007.8
20260506034236 10 275 0.0 3.2 0.30 1.68 1.68 98 1008.0
20260506033732 10 359 1.6 1.6 0.18 1.65 1.65 98 1007.9
20260506033230 10 302 1.6 3.2 0.13 1.63 1.63 98 1008.0
20260506032726 10 270 1.6 9.7 0.18 1.60 1.60 98 1008.0
20260506032223 11 280 1.6 6.4 0.30 1.57 1.57 98 1008.0
20260506031720 11 17 1.6 4.8 0.48 1.57 1.57 98 1008.1
20260506031217 11 324 3.2 4.8 0.61 1.52 1.52 98 1008.3
20260506030716 11 266 3.2 9.7 0.79 1.47 1.47 98 1008.5
20260506030213 11 348 1.6 1.6 0.61 1.42 1.42 98 1008.4
20260506025709 12 354 1.6 9.7 0.43 1.35 1.35 98 1008.2
20260506025206 12 266 4.8 6.4 0.48 1.32 1.32 98 1008.5
20260506024703 13 215 0.0 3.2 0.18 1.27 1.27 97 1008.0
20260506024159 15 291 8.0 14.5 0.18 1.24 1.24 98 1008.3
20260506023655 15 182 0.0 0.0 0.30 1.24 1.24 99 1007.7
20260506023153 15 183 0.0 0.0 0.30 1.22 1.22 99 1007.7
20260506022650 15 181 0.0 0.0 0.30 1.19 1.19 99 1007.9
20260506022147 15 181 0.0 0.0 0.30 1.17 1.17 99 1007.7
20260506021645 15 181 0.0 0.0 0.30 1.14 1.14 99 1007.7
20260506021142 15 181 0.0 0.0 0.30 1.12 1.12 99 1007.7
20260506020639 15 188 0.0 0.0 0.30 1.09 1.09 98 1007.9
20260506020137 15 188 0.0 0.0 0.30 1.07 1.07 98 1007.9
20260506015634 15 188 0.0 0.0 0.30 1.04 1.04 98 1007.9
20260506015131 15 188 0.0 0.0 0.43 1.02 1.02 98 1007.9
20260506014629 15 182 0.0 0.0 0.30 0.97 0.97 98 1007.9
20260506014124 15 182 0.0 0.0 0.36 0.94 0.94 98 1007.9
20260506013623 15 180 0.0 0.0 0.13 0.89 0.89 98 1007.7
20260506013119 15 193 0.0 0.0 0.18 0.86 0.86 98 1007.8
20260506012615 15 193 0.0 0.0 0.13 0.84 0.84 98 1007.4
20260506012112 15 193 0.0 0.0 0.13 0.84 0.84 98 1007.5
20260506011610 15 193 0.0 0.0 0.00 0.81 0.81 98 1007.4
20260506011106 15 192 0.0 0.0 0.00 0.81 0.81 98 1007.4
20260506010605 15 190 0.0 3.2 0.00 0.81 0.81 98 1007.2
20260506005559 15 181 0.0 0.0 0.18 0.81 0.81 98 1007.2
20260506005055 15 178 0.0 0.0 0.00 0.79 0.79 98 1007.4
20260506004552 15 165 0.0 0.0 0.13 0.79 0.79 98 1007.3
20260506004049 15 161 0.0 0.0 0.13 0.79 0.79 98 1007.3
20260506003545 15 172 0.0 0.0 0.18 0.76 0.76 98 1007.4
20260506003041 15 181 0.0 0.0 0.00 0.74 0.74 98 1007.5
20260506002537 15 185 0.0 0.0 0.00 0.74 0.74 98 1007.4
20260506002033 15 182 0.0 0.0 0.00 0.74 0.74 98 1007.4
20260506001530 15 183 0.0 0.0 0.00 0.74 0.74 98 1007.4
20260506001027 15 185 0.0 0.0 0.13 0.74 0.74 98 1007.4
20260506000525 15 195 0.0 1.6 0.18 0.71 0.71 98 1007.3
20260506000022 15 183 0.0 0.0 0.18 0.71 0.71 98 1007.5
20260505235520 15 179 0.0 0.0 0.13 0.69 0.69 98 1007.4
20260505235016 15 179 0.0 0.0 0.30 0.69 0.69 97 1007.4
20260505234513 15 179 0.0 0.0 0.18 0.66 0.66 97 1007.3
20260505234010 15 178 0.0 0.0 0.00 0.64 0.64 97 1007.5
20260505233508 15 178 0.0 0.0 0.00 0.64 0.64 97 1007.6
20260505233005 15 186 0.0 0.0 0.00 0.64 0.64 97 1007.6
20260505232503 15 186 0.0 0.0 0.00 0.64 0.64 97 1007.7
20260505232000 15 186 0.0 0.0 0.00 0.64 0.64 97 1007.8
20260505231457 15 186 0.0 0.0 0.18 0.64 0.64 97 1007.6
20260505230955 15 166 0.0 0.0 0.00 0.61 0.61 97 1007.8
20260505230452 15 173 0.0 0.0 0.00 0.61 0.61 97 1007.8
20260505225949 15 221 0.0 0.0 0.00 0.61 0.61 97 1007.8
20260505225446 15 204 0.0 1.6 0.00 0.61 0.61 96 1007.9
20260505224942 15 191 0.0 0.0 0.00 0.61 0.61 96 1007.7